Cloud_Cover
41 27 36 8 8 79 95 100 100 100 100 100 100 100 100 100 100 100 100 100 100 100 100 100 100 100 27 99 100 100 42 93
11 4 5 5 5 5 5 65 100 100 100 100 100 100 100 100 100 100 100 100 99 100 100 100 100 100 97 99 100 100 91 60
5 8 47 22 36 100 100 100 100 97 100 100 100 100 100 100 100 100 100 100 100 100 100 100 100 100 100 90 100 100 100 100
100 90 46 100 92 100 100 100 100 100 100 100 98 100 100 100 100 100 100 100 100 100 100 100 100 100 100 100 100 100 100 87
100 100 100 100 100 100 100 100 100 100 100 100 100 100 100 100 100 100 100 100 95 71 100 100 100 100 100 100 100 100 100 100
66 99 100 100 100 100 100 100 100 100 100 100 100 100 100 100 100 100 99 100 100 100 90 100 100 100 100 100 100 100 100 100
100 99 100 88 99 100 100 100 100 100 100 100 100 100 100 100 100 100 100 100 100 100 100 100 100 100 100 100 100 100 100 100
100 100 97 100 100 100 100 100 100 100 100 100 100 100 100 100 100 100 100 100 100 100 100 100 100 100 100 100 100 100 100 100
90 66 100 100 100 100 100 100 100 100 100 100 100 100 100 100 100 100 80 99 95 100 100 100 100 100 100 100 100 100 100 100
22 98 100 100 100 100 100 100 80 100 100 100 100 100 100 93 100 100 100 99 91 100 100 100 100 100 100 100 100 100 100 100
96 100 100 100 100 100 100 100 80 83 100 95 68 7 23 71 92 100 100 99 100 100 100 100 100 100 100 100 100 100 100 100
100 62 99 100 100 99 100 99 97 78 100 92 32 11 90 92 80 86 75 100 100 100 100 100 100 100 100 100 100 100 100 100
6 82 100 100 80 53 98 100 100 100 56 96 100 100 100 98 92 18 52 88 100 100 100 100 100 100 100 100 100 100 100 100
100 100 100 95 100 36 100 100 100 100 80 10 54 100 83 99 6 98 92 89 100 100 100 100 100 100 100 100 100 100 100 100
100 100 100 100 54 6 86 91 17 29 91 98 37 5 6 55 98 94 100 100 100 100 100 100 100 100 100 100 100 100 100 100
100 100 100 100 92 95 24 7 12 89 67 40 13 5 5 23 5 98 100 100 100 100 100 100 100 100 100 100 100 100 100 100
100 100 100 100 99 96 97 67 94 21 5 5 9 78 50 100 38 96 100 100 100 100 100 100 100 100 100 100 100 100 100 100
100 100 100 100 100 100 100 94 100 5 5 13 98 100 100 100 85 58 100 100 100 100 100 100 100 100 100 100 100 100 100 100
100 100 92 100 100 100 100 100 30 5 100 85 94 83 73 55 100 100 100 100 100 100 100 100 100 100 100 100 100 100 100 100